This demonstration page uses our WeatherBlox Daily Observations layout. Learn more.

Left ArrowRight Arrow

36.19886, -115.1175

Hourly Observations for August 3, 2017

Temp ( °F °C ) Dew Point ( °F °C ) Humidity (%) Winds ( mph kmh ) Pressure ( in mb ) Visibility ( mi km ) Precip ( " mm )
12:53 am 00:53 Clear 90 32.2 55 12.8 31 31 SSE 9 15 29.94 1014 10 16 N/A
1:53 am 01:53 Clear 86 30 58 14.4 39 39 ESE 9 15 29.93 1014 10 16 N/A
2:53 am 02:53 Clear 84 28.9 61 16.1 46 46 NE 7 11 29.94 1014 10 16 N/A
3:53 am 03:53 Clear 81 27.2 62 16.7 53 53 NNE 6 9 29.95 1014 10 16 N/A
4:53 am 04:53 Clear 83 28.3 61 16.1 48 48 ENE 3 6 29.96 1015 10 16 N/A
5:53 am 05:53 Sunny 83 28.3 61 16.1 48 48 N 6 9 29.98 1015 10 16 N/A
6:53 am 06:53 Sunny 83 28.3 61 16.1 48 48 NE 3 6 30.00 1016 10 16 N/A
7:53 am 07:53 Sunny 86 30 61 16.1 43 43 ENE 5 7 30.01 1016 10 16 N/A
8:53 am 08:53 Sunny 89 31.7 59 15 36 36 SSE 7 11 30.02 1017 10 16 N/A
9:53 am 09:53 Sunny 91 32.8 59 15 34 34 N N/A 30.01 1016 10 16 N/A
10:53 am 10:53 Sunny 93 33.9 58 14.4 31 31 VRB 7 11 30.01 1016 10 16 N/A
11:53 am 11:53 Sunny 95 35 57 13.9 28 28 SE 14 22 30.00 1016 10 16 N/A
12:53 pm 12:53 Sunny 96 35.6 57 13.9 27 27 S 9 15 29.98 1015 10 16 N/A
1:19 pm 13:19 Sunny with Nearby Thunderstorms 96 35.6 57 13.9 27 27 S 12 19 29.83 1010 10 16 N/A
1:34 pm 13:34 Sunny 96 35.6 57 13.9 27 27 SE 8 13 29.83 1010 10 16 N/A
1:53 pm 13:53 Sunny 96 35.6 58 14.4 28 28 S 14 22 29.96 1015 10 16 N/A
2:53 pm 14:53 Sunny 95 35 59 15 30 30 SSW 6 9 29.93 1013 10 16 N/A
3:53 pm 15:53 Sunny 96 35.6 59 15 29 29 SSE 12 19 29.91 1013 10 16 N/A
4:53 pm 16:53 Sunny 97 36.1 54 12.2 24 24 SSW 12 19 29.89 1012 10 16 N/A
5:53 pm 17:53 Sunny 96 35.6 56 13.3 26 26 S 10 17 29.87 1012 10 16 N/A
6:53 pm 18:53 Sunny 95 35 59 15 30 30 SE 13 20 29.89 1012 10 16 N/A
7:53 pm 19:53 Clear 93 33.9 60 15.6 33 33 SSE 16 26 29.89 1012 10 16 N/A
8:53 pm 20:53 Clear 92 33.3 61 16.1 36 36 S 12 19 29.91 1013 10 16 N/A
9:53 pm 21:53 Clear 91 32.8 61 16.1 37 37 SSE 3 6 29.94 1014 10 16 N/A
10:53 pm 22:53 Mostly Clear 90 32.2 61 16.1 38 38 ESE 7 11 29.98 1015 10 16 N/A
11:53 pm 23:53 Cloudy 89 31.7 60 15.6 38 38 N 9 15 29.98 1015 10 16 N/A

Powered by AerisWeather